Tracking 30923 objects as of 1-Jul-2025
HD Live streaming from Space Station
objects crossing your sky now

SL-14 DEB

Track SL-14 DEB now!
10-day predictions


NORAD ID: 29065
Int'l Code: 1978-100AX
Perigee: 1,679.0 km
Apogee: 1,707.0 km
Inclination: 82.5 °
Period: 120.1 minutes
Semi major axis: 8063 km
RCS: 0.015 m2 (small)
Launch date: October 26, 1978
Source: Commonwealth of Independent States (former USSR) (CIS)
Launch site: PLESETSK MISSILE AND SPACE COMPLEX (PKMTR)

Note: This is SATELLITE DEBRIS
Your satellite tracking list
STARLINK-1982
Track 1 satellite(s)




NASA's NSSDC Master Catalog

Two Line Element Set (TLE):
1 29065U 78100AX  25180.05608014  .00000052  00000-0  54616-3 0  9990
2 29065  82.5380 207.4402 0017373 222.6788 167.7399 11.98888968536850
Source of the keplerian elements: AFSPC